Regional Weather Roundup
Issued by NWS

Home | Current Version | Previous Version | Graphics & Text | Print | Product List | Glossary On
Versions: 1 2 3 4 5 6 7 8 9 10 11 12 13 14 15 16 17 18 19 20 21 22 23 24 25 26 27 28 29 30 31 32 33 34 35 36 37 38 39 40 41 42 43 44 45 46 47 48 49 50
000
ASUS43 KIND 301509
RWRIN

WEATHER ROUNDUP FOR INDIANA
NATIONAL WEATHER SERVICE INDIANAPOLIS IN
1100 AM EDT SAT AUG 30 2014

NOTE: "FAIR" INDICATES FEW OR NO CLOUDS BELOW 12,000 FEET WITH NO
SIGNIFICANT WEATHER AND/OR OBSTRUCTIONS TO VISIBILITY.

* - STATION DOES NOT REPORT WEATHER SUCH AS PRECIPITATION OR FOG.

+ - STATION NOT QUALITY CONTROLLED BY THE NATIONAL WEATHER SERVICE.
    USE DATA WITH CAUTION...ESPECIALLY DEWPOINT AND RELATIVE
    HUMIDITY OBSERVATIONS.

INZ001>003-010>013-019-020-301600-
NORTHWEST INDIANA

CITY           SKY/WX    TMP DP  RH WIND       PRES   REMARKS
GARY /AIRPORT/ PTSUNNY   79  70  73 SW15      29.89R
KNOX *+        PTSUNNY   76  69  77 SW13G21   29.92S
LA PORTE +     PTSUNNY   74  69  85 SW13      29.92S
MICHIGAN CITY+ PTSUNNY   77  68  73 SW14      29.91S
MONTICELLO +   PTSUNNY   75  71  89 S14       29.95S
RENSSELAER +   PTSUNNY   77  72  83 SW13G20   29.94S
VALPARAISO     CLOUDY    76  70  82 SW13      29.92S

$$

LMZ046-743>745-301600-
SOUTHERN LAKE MICHIGAN

STATION/POSITION TIME  TEMP WIND        PRES
                       AIR  DIR/SP/G
                 (UTC) (F)  (DEG/KT/KT) (MB)
MICHIGAN CITY    1500   75  180/ 16/ 20   N/A

$$

INZ004-005-014>016-021>024-301600-
NORTH CENTRAL INDIANA

CITY           SKY/WX    TMP DP  RH WIND       PRES   REMARKS
ELKHART        CLOUDY    75  68  78 S14       29.94S
GOSHEN         CLOUDY    76  68  76 SW14G22   29.95R
LOGANSPORT +   CLOUDY    73  66  78 SW13G20   29.98R
PERU/GRISSOM   CLOUDY    75  72  91 SW12      29.98R
ROCHESTER +    LGT RAIN  77  70  78 SW12      29.96F
SOUTH BEND     PTSUNNY   76  69  79 S13       29.93S
WARSAW +       CLOUDY    73  68  83 SW6       29.96R

$$

INZ006>009-017-018-025>027-301600-
NORTHEAST INDIANA

CITY           SKY/WX    TMP DP  RH WIND       PRES   REMARKS
ANGOLA *+      SUNNY     75  66  73 SW10      29.96S
AUBURN +       CLOUDY    77  63  61 SW9G16    29.99R
FORT WAYNE     CLOUDY    75  67  76 SW15      29.99R
HUNTINGTON +   CLOUDY    75  67  77 SW9       29.98S

$$

INZ028-029-035-036-043>045-051>053-301600-
WEST CENTRAL INDIANA

CITY           SKY/WX    TMP DP  RH WIND       PRES   REMARKS
GREENCASTLE +  PTSUNNY   73  68  83 S6        30.03R
LAFAYETTE      CLOUDY    76  69  79 SW12      29.96S
TERRE HAUTE    PTSUNNY   76  70  82 S9        30.01R

$$

INZ030>032-037>040-046>048-054>057-064-065-301600-
CENTRAL INDIANA

CITY           SKY/WX    TMP DP  RH WIND       PRES   REMARKS
ANDERSON       PTSUNNY   75  66  73 S13G18    30.04R
CP ATTERBURY + CLOUDY    72  68  88 SW6       30.05S
COLUMBUS       CLOUDY    72  70  94 SW6       30.05S
FRANKFORT +    CLOUDY    75  69  81 SW9G16    30.00S
GREENWOOD *+   CLOUDY    73  70  88 SW9G16    30.04R
INDIANAPOLIS   PTSUNNY   74  68  81 S16G22    30.01R
-EAGLE CREEK   PTSUNNY   75  68  78 S9G18     30.02R
KOKOMO *+      CLOUDY    75  66  73 SW14G20   29.99R
MARION +       CLOUDY    74  65  73 SW10      30.00R
MT COMFORT *+  CLOUDY    72  72 100 SW9G17    30.03S
SHELBYVILLE    CLOUDY    73  68  84 S10       30.04S
ZIONSVILLE +   CLOUDY    77  67  71 S12G21    30.02R

$$

INZ033-034-041-042-049-050-058-059-301600-
EAST CENTRAL INDIANA

CITY           SKY/WX    TMP DP  RH WIND       PRES   REMARKS
MUNCIE         CLOUDY    76  66  71 SW13      30.01S

$$

INZ060-061-067>069-081>083-085>088-301600-
SOUTHWEST INDIANA

CITY           SKY/WX    TMP DP  RH WIND       PRES   REMARKS
EVANSVILLE     CLOUDY    75  71  87 CALM      30.05R
WASHINGTON +   CLOUDY    75  72  91 W10       30.04R

$$

INZ062-063-066-070>080-084-089>092-301600-
SOUTH CENTRAL AND SOUTHEAST INDIANA

CITY           SKY/WX    TMP DP  RH WIND       PRES   REMARKS
BEDFORD +      LGT RAIN  72  66  83 CALM      30.05
BLOOMINGTON    CLOUDY    73  69  87 S9        30.04S
NORTH VERNON + PTSUNNY   75  66  73 SW3       30.07

$$




USA.gov is the U.S. government's official web portal to all federal, state and local government web resources and services.